Skip Page Navigation
NASA JPL Caltech
NASA Logo - Jet Propulsion Laboratory + View the NASA Portal
+ Center for Near-Earth Object Studies
JPL Home Earth Solar System Stars & Galaxies Technology
JPL Solar System Dynamics
BODIES ORBITS EPHEMERIDES TOOLS PHYSICAL DATA DISCOVERY FAQ SITE MAP
IMPORTANT: The SSD Announcement email list is now available. Major changes are coming in the near future, including possible hostname and/or URL changes. To be notified of such changes, subscribe to this email list.

Please visit this page for more details.


JPL Small-Body Database Browser
Search: [ help ]  
233063 (2005 GD162)
Classification: Main-belt Asteroid          SPK-ID: 2233063
Ephemeris | Orbit Diagram | Orbital Elements | Mission Design | Physical Parameters | Discovery Circumstances | Close-Approach Data ]

[ show orbit diagram ]
Orbital Elements at Epoch 2458600.5 (2019-Apr-27.0) TDB
Reference: JPL 10 (heliocentric ecliptic J2000)
 Element Value Uncertainty (1-sigma)   Units 
e .1325836541972971 7.1585e-08  
a 3.139088626542134 3.6025e-08 au
q 2.722896785586003 2.2918e-07 au
i 1.533714084701276 1.1786e-05 deg
node 41.01194615932699 0.00022314 deg
peri 112.5639226416354 0.0002271 deg
M 238.5310349906936 4.164e-05 deg
tp 2459285.935546779904
(2021-Mar-12.43554678)
0.00023818 TDB
period 2031.439033187283
5.56
3.497e-05
9.574e-08
d
yr
n .1772142772284768 3.0506e-09 deg/d
Q 3.555280467498264 4.0801e-08 au
  Orbit Determination Parameters
   # obs. used (total)      161  
   data-arc span      9800 days (26.83 yr)  
   first obs. used      1993-01-26  
   last obs. used      2019-11-26  
   planetary ephem.      DE431  
   SB-pert. ephem.      SB431-N16  
   condition code      0  
   norm. resid. RMS      .69844  
   source      ORB  
   producer      Otto Matic  
   solution date      2019-Dec-04 17:52:30  

Additional Information
 Earth MOID = 1.73413 au 
 Jupiter MOID = 1.43798 au 
 T_jup = 3.197 
[ show covariance matrix ]

Ephemeris | Orbit Diagram | Orbital Elements | Mission Design | Physical Parameters | Discovery Circumstances | Close-Approach Data ]

Physical Parameter Table
Parameter Symbol Value Units Sigma Reference Notes
absolute magnitude H 16.4   n/a MPO418244  
diameter diameter 2.822 km 0.811 urn:nasa:pds:neowise_diameters_albedos::2.0[mainbelt] (http://adsabs.harvard.edu/abs/2011ApJ...741...68M)  
geometric albedo albedo 0.061   0.022 urn:nasa:pds:neowise_diameters_albedos::2.0[mainbelt] (http://adsabs.harvard.edu/abs/2011ApJ...741...68M)  

233063 (2005 GD162)          Discovered 2005-Apr-14 by Spacewatch at Kitt Peak
Reference: 20100228/Numbers.arcLast Updated: 2010-03-03

[ show close-approach data ]
Alternate Designations
 2005 GD162 = 2005 GW51 
Ephemeris | Orbit Diagram | Orbital Elements | Mission Design | Physical Parameters | Discovery Circumstances | Close-Approach Data ]
ABOUT SSD CREDITS/AWARDS PRIVACY/COPYRIGHT GLOSSARY LINKS
FirstGov 2019-Dec-14 19:51 UT
(server date/time)  
NASA Home Page
Site Manager:   Ryan S. Park
Webmaster  Alan B. Chamberlin